Terug naar catalogus

DELTA 1 DEB *

ActiefPO
NORAD 8679·DEBRIS·🇺🇸 United States

Gelanceerd Jan 22, 1975 vanaf Vandenberg Space Force Base

Loading…

Volgende Passages (komende 24 uur)

TLE

VersSource: Space-Track

Epoch: Sep 14, 2026, 09:42 UTC

1 08679U 75004G   26257.40483990  .00008452  00000-0  62033-3 0  9991
2 08679  98.7196 163.2601 0101554 141.8525 218.9941 14.99673519655782

Volg DELTA 1 DEB * in realtime met AllMySat

Download on the App Store